This is the latest recevied weather packets stored in our database for station/object K7FLA. If no packets are shown the sender has not sent any weather packets the latest 10 day(s).
| Time | Temp. | Humidity | Pressure | Rain* | Wind** | Luminosity | Snow |
|---|---|---|---|---|---|---|---|
| 1778024050 | 15.56° C | 53% | 1093.6 hPa | 0 mm | - | 105 W/m² | - |
| 1778023747 | 15.56° C | 53% | 1093.7 hPa | 0 mm | - | 169 W/m² | - |
| 1778023445 | 15.56° C | 52% | 1093.5 hPa | 0 mm | - | 144 W/m² | - |
| 1778023141 | 15.56° C | 53% | 1093.4 hPa | 0 mm | - | 98 W/m² | - |
| 1778022839 | 15.56° C | 52% | 1093.5 hPa | 0 mm | - | 106 W/m² | - |
| 1778022537 | 16.11° C | 52% | 1093.5 hPa | 0 mm | - | 166 W/m² | - |
| 1778022234 | 16.11° C | 53% | 1093.7 hPa | 0 mm | - | 188 W/m² | - |
| 1778021931 | 16.11° C | 51% | 1093.6 hPa | 0 mm | - | 161 W/m² | - |
| 1778021628 | 16.67° C | 51% | 1093.5 hPa | 0 mm | - | 153 W/m² | - |
| 1778021323 | 16.67° C | 50% | 1093.7 hPa | 0 mm | - | 156 W/m² | - |
| 1778021021 | 17.22° C | 48% | 1093.8 hPa | 0 mm | - | 197 W/m² | - |
| 1778020718 | 17.22° C | 49% | 1093.6 hPa | 0 mm | - | 259 W/m² | - |
| 1778020415 | 17.22° C | 49% | 1093.7 hPa | 0 mm | - | 574 W/m² | - |
| 1778020110 | 17.22° C | 48% | 1093.6 hPa | 0 mm | - | 545 W/m² | - |
| 1778019807 | 16.67° C | 50% | 1093.7 hPa | 0 mm | - | 647 W/m² | - |
| 1778019504 | 17.22° C | 49% | 1093.9 hPa | 0 mm | - | 188 W/m² | - |
| 1778019201 | 17.78° C | 48% | 1093.7 hPa | 0 mm | - | 192 W/m² | - |
| 1778018898 | 18.33° C | 47% | 1093.9 hPa | 0 mm | - | 241 W/m² | - |
| 1778018595 | 18.33° C | 49% | 1093.8 hPa | 0 mm | - | 496 W/m² | - |
| 1778018293 | 17.78° C | 48% | 1093.9 hPa | 0 mm | - | 382 W/m² | - |
| 1778017990 | 17.78° C | 48% | 1094.1 hPa | 0 mm | - | 369 W/m² | - |
| 1778017688 | 17.78° C | 48% | 1094.1 hPa | 0 mm | - | 330 W/m² | - |
| 1778017386 | 17.78° C | 50% | 1094.1 hPa | 0 mm | - | 328 W/m² | - |
| 1778017082 | 18.33° C | 48% | 1094 hPa | 0 mm | - | 235 W/m² | - |
| 1778016780 | 18.33° C | 47% | 1094.3 hPa | 0 mm | - | 183 W/m² | - |
* Rain latest hour (hover to see other rain measurements)
** Current wind speed in m/s (hover to see current wind gust speed)